SIA2812 YSSY-YBBN

Flight info

Callsign SIA2812
Flight time N/A
Altitude 33000
Route OLSEM Y193 BANDA H252 BN
Aircraft A359/H-SDE2E3GHIJ3J4J5LM1ORWXY/LB1D1

Departure

Time 2026-05-05 04:09
Airport Sydney Kingsford Smith International Airport (YSSY)

Arrival

Time N/A
Airport Brisbane International Airport (YBBN)
Time Latitude Longitude Altitude Speed Heading
2026-05-05 03:35 -33.93950 151.16908 27 ft 0 kts 77°
2026-05-05 03:51 -33.93952 151.16895 26 ft 2 kts 79°
2026-05-05 03:51 -33.93954 151.16876 27 ft 2 kts 82°
2026-05-05 03:52 -33.93956 151.16856 27 ft 2 kts 85°
2026-05-05 03:52 -33.93957 151.16837 27 ft 2 kts 91°
2026-05-05 03:52 -33.93955 151.16817 27 ft 2 kts 100°
2026-05-05 03:52 -33.93951 151.16798 25 ft 2 kts 114°
2026-05-05 03:53 -33.93943 151.16782 26 ft 2 kts 134°
2026-05-05 03:53 -33.93929 151.16771 26 ft 2 kts 155°
2026-05-05 03:53 -33.93923 151.16768 26 ft 0 kts 168°
2026-05-05 03:57 -33.93964 151.16783 27 ft 20 kts 163°
2026-05-05 03:57 -33.94040 151.16829 27 ft 8 kts 112°
2026-05-05 03:57 -33.94044 151.16899 27 ft 10 kts 84°
2026-05-05 03:57 -33.94025 151.16990 27 ft 13 kts 72°
2026-05-05 03:58 -33.93995 151.17114 29 ft 18 kts 75°
2026-05-05 03:58 -33.93958 151.17281 27 ft 23 kts 76°
2026-05-05 03:58 -33.93912 151.17485 29 ft 27 kts 73°
2026-05-05 03:58 -33.93864 151.17698 29 ft 24 kts 89°
2026-05-05 03:59 -33.93925 151.17784 28 ft 11 kts 160°
2026-05-05 03:59 -33.93960 151.17799 29 ft 0 kts 160°
2026-05-05 03:59 -33.93961 151.17799 29 ft 0 kts 160°
2026-05-05 03:59 -33.93964 151.17801 29 ft 1 kts 160°
2026-05-05 04:00 -33.94062 151.17826 29 ft 23 kts 171°
2026-05-05 04:00 -33.94171 151.17852 31 ft 25 kts 168°
2026-05-05 04:00 -33.94348 151.17896 31 ft 28 kts 169°
2026-05-05 04:00 -33.94498 151.17888 30 ft 19 kts 188°
2026-05-05 04:01 -33.94632 151.17911 30 ft 21 kts 168°
2026-05-05 04:01 -33.94795 151.17952 27 ft 27 kts 168°
2026-05-05 04:01 -33.95013 151.18004 31 ft 13 kts 166°
2026-05-05 04:01 -33.95069 151.18031 32 ft 13 kts 148°
2026-05-05 04:02 -33.95096 151.18134 31 ft 14 kts 83°
2026-05-05 04:02 -33.95072 151.18271 31 ft 19 kts 78°
2026-05-05 04:02 -33.95041 151.18446 33 ft 23 kts 78°
2026-05-05 04:02 -33.95008 151.18629 32 ft 17 kts 78°
2026-05-05 04:03 -33.95000 151.18676 31 ft 1 kts 78°
2026-05-05 04:03 -33.94999 151.18681 31 ft 0 kts 78°
2026-05-05 04:07 -33.94998 151.18683 31 ft 1 kts 78°
2026-05-05 04:07 -33.94986 151.18751 31 ft 18 kts 78°
2026-05-05 04:08 -33.94979 151.18802 30 ft 6 kts 89°
2026-05-05 04:08 -33.94993 151.18831 29 ft 3 kts 143°
2026-05-05 04:08 -33.95029 151.18849 30 ft 8 kts 165°
2026-05-05 04:08 -33.95100 151.18869 29 ft 13 kts 168°
2026-05-05 04:09 -33.95417 151.18950 29 ft 104 kts 168°
2026-05-05 04:09 -33.96514 151.19219 202 ft 206 kts 172°
2026-05-05 04:09 -33.98159 151.19602 625 ft 283 kts 171°
2026-05-05 04:09 -34.00150 151.20526 1723 ft 332 kts 149°
2026-05-05 04:10 -34.01726 151.22553 3206 ft 329 kts 121°
2026-05-05 04:10 -34.02582 151.25046 4520 ft 318 kts 114°
2026-05-05 04:10 -34.03760 151.27223 5612 ft 305 kts 138°
2026-05-05 04:10 -34.05324 151.28910 6672 ft 298 kts 143°
2026-05-05 04:11 -34.06910 151.30493 7652 ft 294 kts 143°
2026-05-05 04:11 -34.08478 151.32040 8530 ft 296 kts 144°
2026-05-05 04:11 -34.10068 151.33655 9334 ft 302 kts 139°
2026-05-05 04:11 -34.11302 151.35747 10055 ft 313 kts 114°
2026-05-05 04:12 -34.11753 151.38342 10616 ft 325 kts 97°
2026-05-05 04:12 -34.11766 151.41155 10971 ft 340 kts 79°
2026-05-05 04:12 -34.10859 151.43775 11530 ft 343 kts 51°
2026-05-05 04:12 -34.09124 151.45714 12180 ft 340 kts 29°
2026-05-05 04:13 -34.07029 151.46995 12879 ft 338 kts 18°